NSS-12

Last updated on Aug. 14, 2020, 5:30 a.m. UTC

1 36032U 09058A   20226.13145587  .00000074  00000-0  00000+0 0  9992
2 36032   0.0578 285.0225 0002688 226.6262 274.6935  1.00270656 39522
UTC
Height (km)
Latitude
Longitude
Inclination
Orbital Period
UTC large
Height (km)
Speed (km/s)
/
Latitude / Longitude
Inclination (degrees)
Orbital Period (minutes)
Azimuth
Elevation
Range (km)
Doppler Factor
iOS Compass Heading
iOS Angle

Next 30 passes for location: Hong Kong

Rise time Rise Azimuth (degrees) Set time Set Azimuth (degrees) Duration Max altitude (degrees)

No matching passes for this satellites